JBU1771 KPDX-CYYC

Flight info

Callsign JBU1771
Flight time N/A
Altitude 37000
Route LAVAA7 SUNED DCT DBLUS DCT ANTAK IGVEP7
Aircraft A320/M-SDE3FGHIRWY/LB1

Departure

Time 2026-05-07 02:34
Airport Portland International Airport (KPDX)

Arrival

Time N/A
Airport Calgary International Airport (CYYC)
Time Latitude Longitude Altitude Speed Heading
2026-05-07 02:18 45.58465 -122.58941 51 ft 0 kts 28°
2026-05-07 02:22 45.58467 -122.58939 24 ft 0 kts 28°
2026-05-07 02:23 45.58470 -122.58937 22 ft 0 kts 28°
2026-05-07 02:24 45.58456 -122.58947 12 ft 2 kts 28°
2026-05-07 02:24 45.58442 -122.58959 29 ft 2 kts 28°
2026-05-07 02:24 45.58427 -122.58970 30 ft 2 kts 28°
2026-05-07 02:25 45.58413 -122.58982 30 ft 2 kts 68°
2026-05-07 02:25 45.58412 -122.59005 31 ft 2 kts 139°
2026-05-07 02:25 45.58413 -122.59006 31 ft 0 kts 143°
2026-05-07 02:28 45.58412 -122.59003 31 ft 0 kts 130°
2026-05-07 02:28 45.58409 -122.58994 31 ft 2 kts 118°
2026-05-07 02:28 45.58401 -122.58973 31 ft 2 kts 118°
2026-05-07 02:29 45.58388 -122.58938 32 ft 6 kts 118°
2026-05-07 02:29 45.58361 -122.58866 33 ft 11 kts 118°
2026-05-07 02:29 45.58316 -122.58746 32 ft 17 kts 118°
2026-05-07 02:29 45.58262 -122.58603 31 ft 17 kts 118°
2026-05-07 02:30 45.58201 -122.58446 32 ft 20 kts 119°
2026-05-07 02:30 45.58135 -122.58361 30 ft 5 kts 183°
2026-05-07 02:30 45.58132 -122.58362 30 ft 0 kts 185°
2026-05-07 02:31 45.58129 -122.58363 30 ft 2 kts 188°
2026-05-07 02:31 45.58107 -122.58370 30 ft 5 kts 194°
2026-05-07 02:31 45.58072 -122.58395 32 ft 6 kts 227°
2026-05-07 02:31 45.58073 -122.58445 33 ft 0 kts 292°
2026-05-07 02:33 45.58074 -122.58448 33 ft 1 kts 293°
2026-05-07 02:33 45.58127 -122.58592 36 ft 47 kts 300°
2026-05-07 02:33 45.58398 -122.59284 33 ft 110 kts 298°
2026-05-07 02:34 45.58849 -122.60436 30 ft 155 kts 299°
2026-05-07 02:34 45.59400 -122.61814 481 ft 159 kts 301°
2026-05-07 02:34 45.59978 -122.63177 1080 ft 161 kts 301°
2026-05-07 02:34 45.60565 -122.64542 1725 ft 162 kts 300°
2026-05-07 02:35 45.61184 -122.65987 2100 ft 181 kts 300°
2026-05-07 02:35 45.61878 -122.67619 2351 ft 205 kts 299°
2026-05-07 02:35 45.62648 -122.69480 2665 ft 230 kts 298°
2026-05-07 02:35 45.63496 -122.71559 3116 ft 252 kts 298°
2026-05-07 02:36 45.64389 -122.73755 3913 ft 259 kts 298°
2026-05-07 02:36 45.65299 -122.75994 4884 ft 260 kts 299°
2026-05-07 02:36 45.66359 -122.78089 5797 ft 264 kts 317°
2026-05-07 02:36 45.67980 -122.79321 6612 ft 271 kts 345°
2026-05-07 02:37 45.69860 -122.79267 6923 ft 276 kts 16°
2026-05-07 02:37 45.71571 -122.78020 7444 ft 282 kts 27°
2026-05-07 02:37 45.73252 -122.76534 8315 ft 287 kts 35°
2026-05-07 02:37 45.74649 -122.74455 9115 ft 295 kts 53°
2026-05-07 02:38 45.75549 -122.71788 9905 ft 303 kts 72°
2026-05-07 02:38 45.75822 -122.68757 10467 ft 317 kts 89°
2026-05-07 02:38 45.75801 -122.65480 10661 ft 341 kts 90°
2026-05-07 02:38 45.75758 -122.62006 11049 ft 354 kts 90°
2026-05-07 02:39 45.75704 -122.58450 11660 ft 360 kts 90°
2026-05-07 02:39 45.75649 -122.54837 12311 ft 365 kts 90°
2026-05-07 02:39 45.75596 -122.51182 12960 ft 369 kts 90°
2026-05-07 02:39 45.75547 -122.47483 13611 ft 374 kts 90°
2026-05-07 02:40 45.75501 -122.43737 14231 ft 379 kts 90°
2026-05-07 02:40 45.75456 -122.39946 14800 ft 382 kts 90°
2026-05-07 02:40 45.75412 -122.36159 15382 ft 386 kts 91°
2026-05-07 02:40 45.75366 -122.32254 15970 ft 390 kts 91°
2026-05-07 02:41 45.75320 -122.28403 16530 ft 393 kts 91°
2026-05-07 02:41 45.75268 -122.24471 17123 ft 397 kts 91°
2026-05-07 02:41 45.75211 -122.20507 17697 ft 400 kts 91°
2026-05-07 02:41 45.75152 -122.16504 18299 ft 404 kts 91°
2026-05-07 02:42 45.75095 -122.12462 18825 ft 408 kts 91°
2026-05-07 02:42 45.75038 -122.08378 19336 ft 412 kts 91°
2026-05-07 02:42 45.74979 -122.04263 19873 ft 415 kts 91°
2026-05-07 02:42 45.74913 -122.00111 20422 ft 418 kts 90°
2026-05-07 02:43 45.74841 -121.95929 20948 ft 422 kts 90°
2026-05-07 02:43 45.74768 -121.91718 21437 ft 425 kts 90°
2026-05-07 02:43 45.74882 -121.87485 21934 ft 426 kts 81°
2026-05-07 02:43 45.75477 -121.83325 22433 ft 427 kts 70°
2026-05-07 02:44 45.76528 -121.79357 22942 ft 427 kts 63°
2026-05-07 02:44 45.77715 -121.75440 23427 ft 430 kts 63°
2026-05-07 02:44 45.78904 -121.71487 23862 ft 433 kts 63°
2026-05-07 02:44 45.80061 -121.67611 24249 ft 436 kts 63°
2026-05-07 02:45 45.81239 -121.63651 24658 ft 438 kts 62°
2026-05-07 02:45 45.82783 -121.59931 25035 ft 432 kts 46°
2026-05-07 02:45 45.84775 -121.56709 25438 ft 432 kts 43°
2026-05-07 02:45 45.86805 -121.53519 25838 ft 434 kts 43°
2026-05-07 02:46 45.88850 -121.50323 26235 ft 436 kts 43°
2026-05-07 02:46 45.90908 -121.47113 26610 ft 438 kts 43°